Simultaneous Nadir Overpasses (SNOs) Predictions

Prediction of SNOs between AQUA and TERRA Satellite Orbit:

Table of predicted SNOs for the next 14.0 days since TLE Epoch: 6/3/2023
Index Date (AQUA) Time (AQUA) Lat,Lon (AQUA) SZA (AQUA ) Date (TERRA) Time (TERRA) Lat,Lon (TERRA) SZA (TERRA ) Distance(km) Time Diff (sec)
1 06/03/2023 16:38:43 73.80, -72.31 51.38 06/03/2023 16:39:48 73.72, -69.45 51.29 89.54 65
2 06/03/2023 17:28:06 -73.78, 95.39 128.65 06/03/2023 17:29:11 -73.73, 98.23 128.71 88.56 65
3 06/03/2023 18:17:29 73.63, -96.66 51.20 06/03/2023 18:18:35 73.59, -94.42 51.15 70.45 66
4 06/03/2023 19:06:52 -73.61, 71.04 128.82 06/03/2023 19:07:59 -73.54, 73.15 128.90 66.74 67
5 06/03/2023 19:56:15 73.47,-121.01 51.03 06/03/2023 19:57:23 73.40,-119.49 50.95 48.67 68
6 06/03/2023 20:45:38 -73.45, 46.69 129.00 06/03/2023 20:46:47 -73.36, 48.08 129.10 45.35 69
7 06/03/2023 21:35:01 73.31,-145.36 50.85 06/03/2023 21:36:11 73.21,-144.56 50.75 27.87 70
8 06/03/2023 22:24:24 -73.29, 22.33 129.18 06/03/2023 22:25:34 -73.22, 23.12 129.24 26.32 70
9 06/03/2023 23:13:47 73.14,-169.73 50.68 06/03/2023 23:14:58 73.07,-169.51 50.61 10.08 71
10 06/04/2023 00:03:10 -73.12, -2.04 129.35 06/04/2023 00:04:21 -73.09, -1.83 129.39 7.55 71
11 06/04/2023 00:52:34 73.03, 165.80 50.55 06/04/2023 00:53:43 73.04, 165.74 50.57 2.62 69
12 06/04/2023 01:41:58 -73.06, -26.62 129.42 06/04/2023 01:43:06 -73.06, -26.58 129.42 1.41 68
13 06/04/2023 02:31:24 73.07, 141.00 50.59 06/04/2023 02:32:27 73.07, 141.10 50.58 3.26 63
14 06/04/2023 03:20:47 -73.05, -51.31 129.44 06/04/2023 03:21:51 -73.03, -51.32 129.46 2.73 64
15 06/04/2023 04:10:13 73.07, 116.31 50.57 06/04/2023 04:11:12 73.04, 116.36 50.55 3.34 59
16 06/04/2023 04:59:36 -73.05, -76.00 129.45 06/04/2023 05:00:35 -73.05, -75.96 129.45 1.41 59
17 06/04/2023 05:49:02 73.06, 91.62 50.56 06/04/2023 05:49:56 73.06, 91.72 50.56 3.03 54
18 06/04/2023 06:38:25 -73.04,-100.69 129.47 06/04/2023 06:39:20 -73.02,-100.70 129.48 1.80 55
19 06/04/2023 07:27:51 73.05, 66.94 50.54 06/04/2023 07:28:41 73.03, 66.97 50.52 2.41 50
20 06/04/2023 08:17:14 -73.03,-125.37 129.48 06/04/2023 08:18:04 -73.05,-125.34 129.47 2.01 50
21 06/04/2023 09:06:40 73.04, 42.25 50.53 06/04/2023 09:07:25 73.06, 42.33 50.54 3.09 45
22 06/04/2023 09:56:03 -73.02,-150.06 129.50 06/04/2023 09:56:49 -73.02,-150.09 129.51 1.04 46
23 06/04/2023 10:45:29 73.04, 17.56 50.51 06/04/2023 10:46:10 73.03, 17.59 50.50 1.55 41
24 06/04/2023 11:34:52 -73.02,-174.75 129.51 06/04/2023 11:35:33 -73.04,-174.73 129.49 2.83 41
25 06/04/2023 12:24:18 73.03, -7.13 50.50 06/04/2023 12:24:54 73.05, -7.05 50.52 3.42 36
26 06/04/2023 13:13:41 -73.01, 160.56 129.53 06/04/2023 13:14:18 -73.01, 160.53 129.53 0.96 37
27 06/04/2023 14:03:07 73.02, -31.82 50.48 06/04/2023 14:03:39 73.02, -31.80 50.48 0.86 32
28 06/04/2023 14:52:30 -73.00, 135.87 129.55 06/04/2023 14:53:03 -72.98, 135.79 129.57 3.50 33
29 06/04/2023 15:41:56 73.01, -56.51 50.47 06/04/2023 15:42:24 72.99, -56.54 50.44 2.96 28
30 06/04/2023 16:31:19 -73.00, 111.18 129.56 06/04/2023 16:31:47 -73.01, 111.15 129.55 1.61 28
31 06/04/2023 17:20:45 73.01, -81.20 50.45 06/04/2023 17:21:08 73.01, -81.18 50.46 0.85 23
32 06/04/2023 18:10:08 -72.99, 86.49 129.58 06/04/2023 18:10:32 -72.98, 86.40 129.59 3.14 24
33 06/04/2023 18:59:34 73.00,-105.89 50.44 06/04/2023 18:59:53 72.98,-105.92 50.42 2.26 19
34 06/04/2023 19:48:57 -72.98, 61.80 129.59 06/04/2023 19:49:16 -73.00, 61.76 129.57 2.44 19
35 06/04/2023 20:38:23 72.99,-130.58 50.42 06/04/2023 20:38:37 73.00,-130.56 50.43 1.50 14
36 06/04/2023 21:27:46 -72.97, 37.11 129.61 06/04/2023 21:28:01 -72.97, 37.02 129.61 3.05 15
37 06/04/2023 22:17:12 72.98,-155.27 50.41 06/04/2023 22:17:22 72.97,-155.31 50.40 1.74 10
38 06/04/2023 23:06:35 -72.97, 12.42 129.62 06/04/2023 23:06:45 -72.99, 12.38 129.59 3.31 10
39 06/04/2023 23:56:01 72.98,-179.96 50.39 06/04/2023 23:56:06 73.00,-179.95 50.41 2.28 5
40 06/05/2023 00:45:24 -72.96, -12.27 129.64 06/05/2023 00:45:30 -72.96, -12.36 129.63 3.22 6
41 06/05/2023 01:34:50 72.97, 155.35 50.38 06/05/2023 01:34:51 72.97, 155.31 50.37 1.56 1
42 06/05/2023 02:24:14 -73.00, -37.06 129.60 06/05/2023 02:24:14 -72.99, -37.01 129.62 2.70 0
43 06/05/2023 03:13:39 72.96, 130.66 50.36 06/05/2023 03:13:35 72.99, 130.67 50.39 3.08 4
44 06/05/2023 04:03:02 -72.94, -61.65 129.67 06/05/2023 04:02:59 -72.96, -61.75 129.65 3.60 3
45 06/05/2023 04:52:28 72.96, 105.97 50.35 06/05/2023 04:52:20 72.96, 105.92 50.35 1.79 8
46 06/05/2023 05:41:52 -72.99, -86.44 129.63 06/05/2023 05:41:43 -72.98, -86.39 129.64 2.02 9
47 06/05/2023 06:31:17 72.95, 81.28 50.33 06/05/2023 06:31:04 72.98, 81.28 50.37 3.87 13
48 06/05/2023 07:20:41 -72.98,-111.13 129.64 06/05/2023 07:20:28 -72.95,-111.13 129.68 3.65 13
49 06/05/2023 08:10:06 72.94, 56.59 50.32 06/05/2023 08:09:49 72.95, 56.54 50.33 2.28 17
50 06/05/2023 08:59:30 -72.98,-135.82 129.66 06/05/2023 08:59:12 -72.97,-135.77 129.66 1.55 18
51 06/05/2023 09:48:56 72.99, 31.80 50.36 06/05/2023 09:48:33 72.98, 31.90 50.34 3.37 23
52 06/05/2023 10:38:19 -72.97,-160.51 129.67 06/05/2023 10:37:57 -72.94,-160.52 129.70 2.84 22
53 06/05/2023 11:27:44 72.93, 7.21 50.29 06/05/2023 11:27:18 72.95, 7.15 50.31 2.90 26
54 06/05/2023 12:17:08 -72.96, 174.80 129.69 06/05/2023 12:16:41 -72.97, 174.84 129.68 1.47 27
55 06/05/2023 13:06:34 72.97, -17.58 50.33 06/05/2023 13:06:02 72.97, -17.49 50.32 3.01 32
56 06/05/2023 13:55:57 -72.96, 150.11 129.70 06/05/2023 13:55:26 -72.94, 150.10 129.72 2.06 31
57 06/05/2023 14:45:23 72.97, -42.27 50.31 06/05/2023 14:44:47 72.94, -42.23 50.28 3.32 36
58 06/05/2023 15:34:46 -72.95, 125.42 129.72 06/05/2023 15:34:10 -72.96, 125.46 129.70 1.80 36
59 06/05/2023 16:24:12 72.96, -66.96 50.30 06/05/2023 16:23:31 72.96, -66.88 50.30 2.81 41
60 06/05/2023 17:13:35 -72.94, 100.73 129.73 06/05/2023 17:12:55 -72.93, 100.71 129.74 1.35 40
61 06/05/2023 18:03:01 72.95, -91.65 50.28 06/05/2023 18:02:16 72.93, -91.62 50.26 2.60 45
62 06/05/2023 18:52:24 -72.93, 76.04 129.74 06/05/2023 18:51:39 -72.95, 76.07 129.72 2.35 45
63 06/05/2023 19:41:50 72.95,-116.34 50.27 06/05/2023 19:41:00 72.96,-116.26 50.28 2.80 50
64 06/05/2023 20:31:12 -72.93, 51.35 129.76 06/05/2023 20:30:23 -72.92, 51.33 129.76 0.80 49
65 06/05/2023 21:20:38 72.94,-141.03 50.25 06/05/2023 21:19:44 72.93,-141.01 50.24 1.91 54
66 06/05/2023 22:10:01 -72.92, 26.66 129.77 06/05/2023 22:09:07 -72.95, 26.69 129.75 2.99 54
67 06/05/2023 22:59:27 72.93,-165.72 50.24 06/05/2023 22:58:28 72.95,-165.65 50.26 2.96 59
68 06/05/2023 23:48:50 -72.91, 1.97 129.79 06/05/2023 23:47:52 -72.92, 1.94 129.78 0.81 58
69 06/06/2023 00:38:16 72.93, 169.59 50.23 06/06/2023 00:37:13 72.92, 169.61 50.22 1.26 63
70 06/06/2023 01:27:39 -72.91, -22.72 129.80 06/06/2023 01:26:37 -72.89, -22.80 129.82 3.42 62
71 06/06/2023 02:17:05 72.92, 144.90 50.21 06/06/2023 02:15:57 72.94, 144.97 50.23 3.25 68
72 06/06/2023 03:06:28 -72.90, -47.41 129.81 06/06/2023 03:05:21 -72.91, -47.44 129.80 1.32 67
73 06/06/2023 03:55:54 72.91, 120.21 50.20 06/06/2023 03:54:42 72.91, 120.22 50.20 0.69 72
74 06/06/2023 04:45:17 -72.89, -72.10 129.83 06/06/2023 04:44:06 -72.88, -72.18 129.84 3.09 71
75 06/06/2023 05:34:40 72.75, 95.83 50.02 06/06/2023 05:33:29 72.77, 95.28 50.05 18.33 71
76 06/06/2023 06:24:04 -72.78, -96.59 129.95 06/06/2023 06:22:52 -72.80, -97.03 129.93 14.58 72
77 06/06/2023 07:13:26 72.58, 71.44 49.85 06/06/2023 07:12:17 72.58, 70.23 49.86 40.18 69
78 06/06/2023 08:02:50 -72.62,-120.97 130.12 06/06/2023 08:01:40 -72.61,-122.07 130.13 36.46 70
79 06/06/2023 08:52:12 72.42, 47.05 49.68 06/06/2023 08:51:04 72.44, 45.30 49.71 58.98 68
80 06/06/2023 09:41:36 -72.45,-145.36 130.29 06/06/2023 09:40:27 -72.47,-147.01 130.27 55.09 69
81 06/06/2023 10:30:58 72.25, 22.65 49.50 06/06/2023 10:29:52 72.25, 20.26 49.52 80.97 66
82 06/06/2023 11:20:22 -72.29,-169.76 130.47 06/06/2023 11:19:15 -72.28,-172.04 130.46 77.01 67
83 06/06/2023 12:59:08 -72.12, 165.84 130.64 06/06/2023 12:58:03 -72.09, 162.94 130.66 99.03 65



Historial Predications of SNOs between AQUA and TERRA
